This is the latest recevied weather packets stored in our database for station/object KE8WMS. If no packets are shown the sender has not sent any weather packets the latest 10 day(s).
| Time | Temp. | Humidity | Pressure | Rain* | Wind** | Luminosity | Snow |
|---|---|---|---|---|---|---|---|
| 1778169657 | 13.33° C | 53% | 1009.7 hPa | 0 mm | - | 778 W/m² | - |
| 1778169352 | 13.33° C | 55% | 1009.7 hPa | 0 mm | - | 782 W/m² | - |
| 1778169049 | 13.33° C | 57% | 1009.7 hPa | 0 mm | - | 757 W/m² | - |
| 1778168746 | 12.78° C | 58% | 1009.6 hPa | 0 mm | - | 729 W/m² | - |
| 1778168443 | 13.89° C | 56% | 1009.6 hPa | 0 mm | - | 713 W/m² | - |
| 1778168140 | 13.89° C | 54% | 1009.7 hPa | 0 mm | - | 717 W/m² | - |
| 1778167836 | 12.78° C | 55% | 1009.6 hPa | 0 mm | - | 440 W/m² | - |
| 1778167532 | 12.78° C | 57% | 1009.7 hPa | 0 mm | - | 727 W/m² | - |
| 1778167229 | 12.78° C | 59% | 1009.8 hPa | 0 mm | - | 689 W/m² | - |
| 1778166925 | 12.22° C | 60% | 1009.9 hPa | 0 mm | - | 702 W/m² | - |
| 1778166622 | 11.67° C | 60% | 1009.6 hPa | 0 mm | - | 465 W/m² | - |
| 1778166319 | 11.67° C | 64% | 1009.7 hPa | 0 mm | - | 132 W/m² | - |
| 1778166016 | 11.67° C | 62% | 1009.8 hPa | 0 mm | - | 109 W/m² | - |
| 1778165710 | 12.22° C | 61% | 1009.8 hPa | 0 mm | - | 105 W/m² | - |
| 1778165409 | 13.33° C | 58% | 1009.7 hPa | 0 mm | - | 221 W/m² | - |
| 1778165105 | 12.78° C | 55% | 1009.6 hPa | 0 mm | - | 673 W/m² | - |
| 1778164802 | 13.89° C | 53% | 1009.7 hPa | 0 mm | - | 649 W/m² | - |
| 1778164499 | 13.33° C | 57% | 1009.8 hPa | 0 mm | - | 621 W/m² | - |
| 1778164196 | 13.33° C | 57% | 1009.7 hPa | 0 mm | - | 586 W/m² | - |
| 1778163892 | 12.22° C | 56% | 1009.9 hPa | 0 mm | - | 579 W/m² | - |
| 1778163589 | 12.78° C | 57% | 1009.7 hPa | 0 mm | - | 560 W/m² | - |
| 1778163285 | 12.78° C | 59% | 1009.9 hPa | 0 mm | - | 532 W/m² | - |
| 1778162982 | 12.78° C | 65% | 1009.8 hPa | 0 mm | - | 489 W/m² | - |
| 1778162678 | 12.22° C | 66% | 1009.9 hPa | 0 mm | - | 500 W/m² | - |
| 1778162376 | 12.22° C | 66% | 1009.9 hPa | 0 mm | - | 478 W/m² | - |
* Rain latest hour (hover to see other rain measurements)
** Current wind speed in m/s (hover to see current wind gust speed)